Change the Weather History Date:

Saturday, September 28, 2013

  Actual Average (EDQM) Record (EDQM)
Temperature  
Mean Temperature 42 °F -  
Max Temperature 55 °F 57 °F 71 °F (2000)
Min Temperature 30 °F 44 °F 32 °F (2013)
Degree Days  
Heating Degree Days 22    
Moisture  
Dew Point 36 °F    
Average Humidity 72    
Maximum Humidity 100    
Minimum Humidity 47    
Precipitation  
Precipitation 0.00 in - - ()
Sea Level Pressure  
Sea Level Pressure 29.99 in    
Wind  
Wind Speed 4 mph ()    
Max Wind Speed 12 mph    
Max Gust Speed -    
Visibility 6.2 miles    
Events Fog    
Averages and records for this station are not official NWS values.
T = Trace of Precipitation, MM = Missing Value Source: Averaged Metar Reports

Daily Weather History Graph

Daily Weather History Graph

Search for Another Location

Airport or City:

Trip Planner

Search our weather history database for the weather conditions in past years. The results will help you decide how hot, cold, wet, or windy it might be!

Date:

Astronomy

Sep. 28, 2013 Rise Set
Actual Time 7:03 AM CEST 6:53 PM CEST
Civil Twilight 6:31 AM CEST 7:25 PM CEST
Nautical Twilight 5:53 AM CEST 8:03 PM CEST
Astronomical Twilight 5:14 AM CEST 8:41 PM CEST
Moon 12:04 AM CEST 3:30 PM CEST
Length of Visible Light 12h 53m
Length of Day
11h 49m
Last Quarter, 38% of the Moon is Illuminated
Sep 28
Last Quarter
Oct 5
New
Oct 12
First Quarter
Oct 19
Full
Oct 27
Last Quarter

Hourly Weather History & Observations

Time (CEST) Temp. Windchill Dew Point Humidity Pressure Visibility Wind Dir Wind Speed Gust Speed Precip Events Conditions
12:00 AM 33.8 °F - 33.8 °F 100% 30.04 in - Variable 1.2 mph - N/A   Clear
1:00 AM 33.8 °F - 32.0 °F 93% 30.04 in - SSE 1.2 mph - N/A   Clear
2:00 AM 33.8 °F 30.8 °F 32.0 °F 93% 30.04 in - ESE 3.5 mph - N/A   Clear
3:00 AM 33.8 °F 30.8 °F 32.0 °F 93% 30.04 in - SE 3.5 mph - N/A   Clear
4:00 AM 32.0 °F - 30.2 °F 93% 30.01 in - East 2.3 mph - N/A   Clear
5:00 AM 32.0 °F - 30.2 °F 93% 30.01 in - South 2.3 mph - N/A   Clear
6:00 AM 32.0 °F - 30.2 °F 93% 30.01 in - Variable 2.3 mph - N/A   Clear
6:15 AM 32.0 °F - 30.2 °F 93% 30.01 in 6.2 mi Variable 1.2 mph - N/A Fog Shallow Fog
7:00 AM 30.2 °F - 30.2 °F 100% 30.01 in 6.2 mi SE 1.2 mph - N/A Fog Shallow Fog
8:00 AM 33.8 °F 30.8 °F 32.0 °F 93% 30.01 in 6.2 mi East 3.5 mph - N/A Fog Shallow Fog
8:30 AM 37.4 °F - 35.6 °F 93% 30.01 in 6.2 mi Variable 1.2 mph - N/A Fog Patches of Fog
9:00 AM 41.0 °F - 37.4 °F 87% 30.01 in - Variable 2.3 mph - N/A   Clear
9:30 AM 44.6 °F 43.1 °F 39.2 °F 81% 30.01 in - ENE 3.5 mph - N/A   Clear
10:00 AM 48.2 °F - 39.2 °F 71% 30.01 in - Variable 2.3 mph - N/A   Clear
10:30 AM 48.2 °F - 35.6 °F 62% 30.01 in - SE 6.9 mph - N/A   Clear
11:00 AM 50.0 °F - 37.4 °F 62% 30.01 in 6.2 mi ESE 10.4 mph - N/A   Partly Cloudy
11:30 AM 51.8 °F - 37.4 °F 58% 30.01 in 6.2 mi East 11.5 mph - N/A   Partly Cloudy
12:00 PM 51.8 °F - 37.4 °F 58% 30.01 in 6.2 mi ESE 9.2 mph - N/A   Partly Cloudy
12:30 PM 51.8 °F - 37.4 °F 58% 30.01 in 6.2 mi ESE 8.1 mph - N/A   Partly Cloudy
1:00 PM 53.6 °F - 37.4 °F 54% 30.01 in 6.2 mi East 5.8 mph - N/A   Partly Cloudy
1:30 PM 53.6 °F - 37.4 °F 54% 29.98 in 6.2 mi ENE 6.9 mph - N/A   Partly Cloudy
2:00 PM 53.6 °F - 35.6 °F 51% 29.98 in 6.2 mi East 6.9 mph - N/A   Partly Cloudy
2:30 PM 55.4 °F - 35.6 °F 47% 29.98 in 6.2 mi East 8.1 mph - N/A   Partly Cloudy
3:00 PM 55.4 °F - 37.4 °F 51% 29.98 in 6.2 mi SE 6.9 mph - N/A   Partly Cloudy
3:30 PM 55.4 °F - 37.4 °F 51% 29.98 in - SE 6.9 mph - N/A   Clear
4:00 PM 55.4 °F - 37.4 °F 51% 29.95 in 6.2 mi SE 8.1 mph - N/A   Partly Cloudy
4:30 PM 55.4 °F - 35.6 °F 47% 29.95 in - SE 8.1 mph - N/A   Clear
5:00 PM 53.6 °F - 35.6 °F 51% 29.95 in - ESE 6.9 mph - N/A   Clear
5:30 PM 53.6 °F - 37.4 °F 54% 29.95 in - ENE 8.1 mph - N/A   Clear
6:00 PM 51.8 °F - 39.2 °F 62% 29.95 in - ENE 9.2 mph - N/A   Clear
6:30 PM 50.0 °F - 39.2 °F 66% 29.95 in - East 6.9 mph - N/A   Clear
7:00 PM 46.4 °F 42.9 °F 37.4 °F 71% 29.95 in - East 6.9 mph - N/A   Clear
7:30 PM 46.4 °F 42.9 °F 37.4 °F 71% 29.95 in - East 6.9 mph - N/A   Clear
8:00 PM 46.4 °F 41.9 °F 37.4 °F 71% 29.98 in - East 9.2 mph - N/A   Clear
8:30 PM 44.6 °F 40.2 °F 37.4 °F 76% 29.98 in - East 8.1 mph - N/A   Clear
9:00 PM 42.8 °F 37.5 °F 35.6 °F 76% 29.98 in - East 9.2 mph - N/A   Clear
10:00 PM 42.8 °F 39.3 °F 35.6 °F 76% 29.98 in - ESE 5.8 mph - N/A   Clear
11:00 PM 41.0 °F 35.8 °F 35.6 °F 81% 29.98 in - East 8.1 mph - N/A   Clear